Weather History for Tin City, AK

Change the Weather History Date:

Tuesday, September 3, 2013

  Actual Average Record
Temperature  
Mean Temperature 45 °F -  
Max Temperature 48 °F 45 °F 55 °F (1996)
Min Temperature 42 °F 38 °F 21 °F (2002)
Degree Days  
Heating Degree Days 20    
Moisture  
Dew Point 45 °F    
Average Humidity 99    
Maximum Humidity 100    
Minimum Humidity 93    
Precipitation  
Precipitation 0.00 in - - ()
Sea Level Pressure  
Sea Level Pressure 29.13 in    
Wind  
Wind Speed 22 mph (NNE)    
Max Wind Speed 32 mph    
Max Gust Speed 40 mph    
Visibility 3 miles    
Events Fog , Rain    
Averages and records for this station are not official NWS values.
T = Trace of Precipitation, MM = Missing Value Source: NWS Daily Summary

Daily Weather History Graph

Daily Weather History Graph

Search for Another Location

Airport:

Trip Planner

Search our weather history database for the weather conditions in past years. The results will help you decide how hot, cold, wet, or windy it might be!

Date:

Astronomy

Sep. 03, 2013 Rise Set
Actual Time 7:56 AM AKDT 10:22 PM AKDT
Civil Twilight 7:00 AM AKDT 11:18 PM AKDT
Nautical Twilight 5:41 AM AKDT 12:35 AM AKDT
Astronomical Twilight 3:43 AM AKDT 2:38 AM AKDT
Moon 6:07 AM AKDT (9/3) 9:18 PM AKDT (9/3)
Length of Visible Light 16h 17m
Length of Day
14h 26m
Waning Crescent, 3% of the Moon is Illuminated
Sep 3
Waning Crescent
Sep 5
New
Sep 12
First Quarter
Sep 19
Full
Sep 26
Last Quarter

Hourly Weather History & Observations

Time (AKDT) Temp. Windchill Dew Point Humidity Pressure Visibility Wind Dir Wind Speed Gust Speed Precip Events Conditions
12:16 AM 42.8 °F 31.9 °F 42.8 °F 100% 29.11 in 1.8 mi NE 32.2 mph 40.3 mph N/A Rain Light Rain
12:55 AM 42.8 °F 33.1 °F 42.3 °F 98% 29.12 in 4.0 mi NE 25.3 mph 32.2 mph N/A Rain Light Rain
1:36 AM 42.8 °F 32.7 °F 42.8 °F 100% 29.12 in 1.5 mi NE 27.6 mph 34.5 mph N/A Rain Light Rain
1:55 AM 42.8 °F 32.7 °F 42.4 °F 99% 29.12 in 1.5 mi NE 27.6 mph 35.7 mph N/A Rain Light Rain
1:56 AM 42.8 °F 32.5 °F 42.8 °F 100% 29.12 in 1.8 mi NE 28.8 mph 35.7 mph N/A Rain Light Rain
2:36 AM 42.8 °F 33.8 °F 42.8 °F 100% 29.13 in 1.2 mi NE 21.9 mph - N/A Rain Light Rain
3:16 AM 42.8 °F 33.5 °F 42.8 °F 100% 29.13 in 1.5 mi NE 23.0 mph - N/A Rain Light Rain
3:36 AM 42.8 °F 33.3 °F 42.8 °F 100% 29.12 in 2.5 mi NNE 24.2 mph - N/A Rain Light Rain
3:55 AM 43.3 °F 34.7 °F 43.0 °F 99% 29.13 in 2.5 mi NNE 20.7 mph - N/A Rain Light Rain
4:16 AM 42.8 °F 34.0 °F 42.8 °F 100% 29.12 in 0.8 mi NNE 20.7 mph - N/A Rain Light Rain
4:36 AM 42.8 °F 34.3 °F 42.8 °F 100% 29.13 in 1.0 mi NE 19.6 mph - N/A Rain Light Rain
4:55 AM 43.3 °F 35.2 °F 43.2 °F 99% 29.13 in 0.8 mi NNE 18.4 mph - N/A Rain Light Rain
5:55 AM 43.7 °F 35.7 °F 43.5 °F 99% 29.11 in 0.5 mi NNE 18.4 mph - N/A Fog , Rain Light Rain
5:59 AM 44.6 °F 36.6 °F 42.8 °F 93% 29.11 in 0.5 mi NNE 19.6 mph - N/A Fog , Rain Light Rain
6:24 AM 44.6 °F 36.6 °F 44.6 °F 100% 29.11 in 0.2 mi NNE 19.6 mph - N/A Fog Drizzle
6:55 AM 44.6 °F 36.4 °F 44.6 °F 100% 29.12 in 0.5 mi NNE 20.7 mph - N/A Fog , Rain Light Rain
7:21 AM 44.6 °F 36.6 °F 44.6 °F 100% 29.11 in 0.2 mi NNE 19.6 mph - N/A Fog , Rain Light Rain
7:55 AM 44.6 °F 36.6 °F 44.6 °F 100% 29.12 in 0.2 mi NNE 19.6 mph - N/A Fog , Rain Light Rain
8:35 AM 44.6 °F 37.8 °F 44.6 °F 100% 29.12 in 0.2 mi NNE 15.0 mph - N/A Fog , Rain Light Rain
8:55 AM 44.6 °F 37.4 °F 44.6 °F 100% 29.12 in 0.2 mi NNE 16.1 mph - N/A Fog , Rain Light Rain
9:38 AM 44.6 °F 36.9 °F 44.6 °F 100% 29.11 in 0.5 mi North 18.4 mph - N/A Fog Fog
9:55 AM 44.6 °F 36.6 °F 44.6 °F 100% 29.10 in 1.5 mi NNE 19.6 mph - N/A   Mostly Cloudy
10:01 AM 44.6 °F 36.6 °F 44.6 °F 100% 29.11 in 1.2 mi NNE 19.6 mph - N/A Rain Light Rain Showers
10:41 AM 46.4 °F 39.2 °F 46.4 °F 100% 29.11 in 0.8 mi North 18.4 mph - N/A Rain Light Rain Showers
10:55 AM 46.0 °F 38.8 °F 45.7 °F 99% 29.11 in 0.8 mi NNE 18.4 mph - N/A Rain Light Rain Showers
11:55 AM 46.8 °F - 46.6 °F 99% 29.11 in 0.5 mi NNE 19.6 mph - N/A Fog Heavy Drizzle
12:21 PM 46.4 °F 39.5 °F 46.4 °F 100% 29.12 in 0.8 mi NNE 17.3 mph - N/A   Heavy Drizzle
12:41 PM 46.4 °F 39.5 °F 46.4 °F 100% 29.12 in 2.5 mi NNE 17.3 mph - N/A   Mostly Cloudy
12:55 PM 47.1 °F - 46.9 °F 99% 29.12 in 9.0 mi NNE 15.0 mph - N/A   Mostly Cloudy
1:55 PM 47.5 °F - 46.9 °F 98% 29.13 in 10.0 mi NNE 12.7 mph - N/A   Mostly Cloudy
2:21 PM 48.2 °F - 46.4 °F 93% 29.13 in 10.0 mi NNE 16.1 mph - N/A   Drizzle
2:41 PM 46.4 °F 40.1 °F 46.4 °F 100% 29.13 in 10.0 mi NNE 15.0 mph - N/A   Drizzle
2:55 PM 46.9 °F - 45.9 °F 96% 29.13 in 10.0 mi NNE 16.1 mph - N/A Rain Light Rain
3:55 PM 46.9 °F - 46.4 °F 98% 29.13 in 10.0 mi NNE 15.0 mph - N/A Rain Light Rain
4:21 PM 46.4 °F 39.8 °F 46.4 °F 100% 29.13 in 10.0 mi NNE 16.1 mph - N/A   Drizzle
4:41 PM 46.4 °F 39.5 °F 46.4 °F 100% 29.13 in 10.0 mi NNE 17.3 mph - N/A   Overcast
4:55 PM 46.9 °F - 46.4 °F 98% 29.13 in 10.0 mi NNE 16.1 mph - N/A   Overcast
5:55 PM 47.7 °F - 46.8 °F 97% 29.13 in 10.0 mi NNE 17.3 mph - N/A   Mostly Cloudy
6:55 PM 48.7 °F - 47.8 °F 97% 29.13 in 10.0 mi NNE 16.1 mph - N/A   Mostly Cloudy
7:41 PM 48.2 °F - 48.2 °F 100% 29.14 in 0.2 mi NNE 15.0 mph - N/A Fog , Rain Light Rain
7:55 PM 48.6 °F - 48.0 °F 98% 29.14 in 0.5 mi NE 16.1 mph - N/A Fog , Rain Light Rain
8:21 PM 48.2 °F - 48.2 °F 100% 29.14 in 0.2 mi NNE 17.3 mph - N/A Fog , Rain Light Rain Showers
8:55 PM 47.5 °F - 47.3 °F 99% 29.15 in 0.2 mi NNE 18.4 mph - N/A Fog , Rain Light Rain Showers
9:55 PM 46.6 °F - 46.2 °F 99% 29.15 in 0.2 mi NNE 19.6 mph - N/A Rain Light Rain
10:55 PM 46.4 °F 39.0 °F 46.0 °F 99% 29.16 in 0.2 mi NNE 19.6 mph - N/A Fog , Rain Light Rain
11:55 PM 46.6 °F - 46.4 °F 99% 29.16 in 0.2 mi NNE 20.7 mph - N/A Fog , Rain Light Rain